Theta_e
342 340 336 331 328 328 327 326 326 324 323 322 320 315 313 313 315 317 319 319 319 320 320 318 318 316 315 315 316 317 317 317 314 319 323 327 329 332 337 339 343 343 341
340 334 331 327 326 325 325 324 324 322 321 319 314 308 308 311 315 316 317 317 318 318 316 314 314 316 311 311 312 312 312 314 314 312 317 321 324 330 333 332 337 342 341
334 329 325 324 324 322 321 321 320 316 312 311 306 307 309 311 312 314 316 314 313 315 315 312 310 310 309 310 313 316 317 316 314 314 315 319 324 329 327 325 327 330 335
329 325 323 322 321 320 319 318 316 312 309 307 306 303 306 309 311 312 315 313 312 312 314 312 308 309 310 315 315 315 316 317 313 313 314 315 319 322 325 320 321 325 326
324 323 321 320 319 318 316 315 315 311 305 302 302 302 302 308 314 311 313 313 311 311 312 313 308 315 319 317 312 313 316 317 312 310 312 312 312 313 315 317 317 320 323
323 321 320 319 318 315 313 313 314 312 309 306 302 301 301 309 319 325 316 314 312 310 307 307 309 311 311 316 319 319 317 312 311 309 312 312 315 316 314 314 315 315 314
322 321 319 318 315 313 313 313 312 312 312 310 307 305 303 302 318 323 320 314 312 310 306 305 308 309 308 305 310 313 313 316 315 307 305 312 315 316 316 313 311 312 313
321 320 318 315 314 313 312 311 311 311 310 309 310 309 307 306 316 319 315 306 312 311 307 305 304 304 306 306 303 303 304 305 307 310 307 309 312 313 311 312 310 309 311
320 319 316 314 313 313 311 311 311 310 310 311 310 309 310 307 314 315 309 303 309 310 308 305 304 304 310 315 303 302 302 304 313 317 318 318 319 321 318 308 306 305 304
319 319 316 314 313 312 312 312 311 313 312 313 312 311 313 310 313 313 309 303 303 306 308 306 312 311 315 313 304 301 300 301 305 307 305 306 309 309 315 309 306 302 303
320 319 316 314 314 313 312 312 313 312 312 311 312 312 313 313 311 314 312 304 302 303 304 305 305 312 311 311 312 304 303 305 308 303 302 302 303 304 306 306 306 305 302
319 318 316 314 318 316 313 313 313 312 311 311 311 314 316 312 315 314 313 311 311 302 302 304 306 310 308 309 310 313 314 311 302 302 301 301 301 302 303 305 306 303 304
317 317 315 315 315 314 312 312 311 312 312 312 312 311 310 314 315 316 313 313 314 308 305 307 312 308 308 309 314 314 313 304 302 301 300 300 302 303 303 303 304 301 303
315 314 313 312 313 313 313 314 313 313 311 311 307 303 308 312 312 310 310 307 310 311 311 302 306 310 312 312 309 307 305 305 304 302 301 302 303 302 303 301 299 299 298
314 313 313 313 313 313 312 312 312 312 311 303 300 302 304 310 312 309 307 305 304 303 301 298 299 299 301 303 305 307 307 303 303 302 301 300 300 301 302 301 299 298 295
314 313 313 312 310 310 311 311 311 311 308 304 303 305 306 305 305 304 301 301 301 301 299 298 298 299 301 305 305 308 307 306 303 302 301 299 299 300 298 297 296 295 294
315 313 312 311 310 309 309 310 309 309 305 303 301 300 300 303 302 299 298 298 298 300 298 298 298 299 301 304 307 308 306 303 303 301 300 299 297 296 295 294 294 293 293
314 313 313 311 310 309 309 309 311 309 306 307 306 303 300 298 297 297 297 298 298 298 297 299 301 302 305 308 308 309 302 303 302 300 298 296 295 294 294 293 293 292 292
315 313 309 310 309 310 311 310 310 309 309 312 312 305 303 298 297 296 297 299 299 300 301 302 305 305 306 306 308 304 302 301 298 296 294 294 294 293 293 293 294 297 296
313 316 313 308 310 309 307 308 308 310 310 311 308 308 308 306 305 303 301 300 300 301 303 306 306 304 305 304 301 298 298 297 295 294 294 293 293 293 293 293 294 293 293
312 309 313 307 306 307 308 309 309 310 309 309 308 311 306 308 304 303 307 307 306 306 304 303 302 300 300 299 298 297 297 296 295 294 293 293 294 293 293 293 294 294 294
312 310 309 308 308 308 307 308 309 310 311 309 305 303 300 302 302 303 302 302 303 302 300 299 299 299 298 298 297 298 297 296 295 294 294 294 293 292 292 292 293 293 294
313 313 312 310 309 313 314 314 312 311 307 308 310 308 303 302 301 300 301 301 300 299 298 299 298 297 299 298 299 299 297 295 295 295 294 292 291 291 291 292 292 292 293
312 313 313 312 311 312 314 311 311 311 306 305 304 304 301 300 300 300 299 299 299 299 298 297 297 298 299 299 299 297 295 295 294 293 293 291 290 290 291 291 292 292 293
310 310 312 311 311 312 313 310 311 306 306 306 304 302 300 299 299 299 299 298 298 297 298 299 299 299 299 300 296 295 292 291 292 291 290 289 289 289 290 290 292 293 296
309 309 311 312 313 314 310 307 304 304 303 303 303 302 301 299 299 298 298 298 297 297 298 298 298 300 299 298 297 292 287 289 289 285 286 286 287 288 289 291 292 293 297
Wind_Speed
8 8 10 7 7 7 7 6 6 6 6 6 7 6 6 6 6 6 5 6 7 7 7 7 7 6 4 4 4 4 4 4 2 3 2 5 4 8 8 5 5 5 7
9 9 9 8 7 7 7 6 6 7 6 7 6 6 6 6 6 6 6 5 7 6 5 7 6 5 6 5 4 5 4 3 1 3 3 3 3 8 7 9 8 6 5
10 9 7 7 7 6 7 7 7 7 7 7 7 6 6 5 6 5 5 5 6 6 5 6 5 5 5 3 5 6 5 2 1 2 3 2 3 6 6 5 7 8 6
9 8 7 7 7 6 6 7 7 7 7 6 6 6 4 4 5 5 5 5 5 5 4 3 4 4 3 7 7 7 6 5 3 2 2 3 2 4 4 6 8 5 7
11 10 9 7 7 7 7 7 6 7 6 6 6 5 3 3 3 4 3 4 5 5 4 2 4 8 10 9 3 5 5 3 3 3 3 3 3 4 5 4 3 5 6
11 11 9 8 7 7 6 7 7 6 5 6 6 5 4 3 4 6 7 4 3 5 4 3 2 7 8 12 12 13 9 5 6 4 3 2 4 3 3 3 4 5 4
12 10 9 8 8 7 6 6 6 6 4 4 3 3 3 2 7 8 10 4 4 3 3 2 3 3 5 6 10 11 12 11 9 1 3 2 3 3 4 5 3 3 3
11 10 9 8 7 7 7 6 4 4 5 5 4 3 1 2 7 7 8 5 6 4 3 2 1 4 5 5 7 7 7 6 6 3 2 5 4 1 2 1 2 4 4
10 10 9 8 8 7 8 6 4 4 3 4 3 5 3 1 3 7 6 4 4 2 2 1 1 4 8 4 5 6 7 7 9 13 10 11 10 8 3 2 4 4 4
10 10 9 8 7 7 6 7 4 3 5 4 5 5 6 4 5 2 4 2 3 2 2 4 6 6 11 6 2 1 5 4 5 7 7 8 7 8 7 2 0 2 2
10 10 8 7 7 7 7 3 4 3 2 3 3 3 5 6 6 7 3 0 1 2 1 3 4 9 9 7 3 3 4 3 5 4 4 5 5 5 4 4 3 1 1
10 10 9 8 6 6 6 4 3 3 2 2 2 5 4 6 10 9 8 7 3 1 3 3 5 10 11 9 5 5 5 5 2 3 4 4 4 4 5 5 5 4 3
10 9 7 7 6 6 5 4 2 3 3 4 2 4 4 4 6 12 8 8 6 3 3 6 9 11 10 4 1 2 2 2 1 2 1 3 3 5 5 4 4 4 5
10 8 7 7 6 4 3 3 4 4 4 3 3 4 3 2 4 3 4 3 4 5 4 4 6 8 7 4 2 2 3 3 3 2 2 3 4 4 3 2 2 4 3
9 7 7 6 6 5 5 5 5 6 6 4 5 5 4 4 6 8 7 4 4 4 2 2 2 2 4 4 3 4 3 0 0 2 1 3 3 4 4 4 2 3 3
9 7 6 5 5 5 4 4 9 11 10 12 9 7 4 7 7 10 9 6 8 6 1 2 3 3 4 4 4 4 2 2 2 2 2 2 2 3 3 3 2 2 3
9 7 4 4 4 3 3 5 5 4 7 11 10 10 10 10 7 10 8 6 5 5 2 3 4 4 5 4 4 3 3 2 1 3 1 2 2 2 3 2 3 2 3
6 7 5 5 5 5 6 6 5 5 5 6 9 12 10 12 8 8 5 6 1 3 4 4 5 4 4 4 4 3 1 1 2 3 3 2 3 1 2 3 3 3 3
6 4 5 4 5 6 7 5 5 4 5 6 3 2 8 12 8 6 10 4 4 4 3 4 4 4 3 3 2 2 3 4 3 2 2 1 2 1 2 3 4 6 6
6 9 6 5 5 5 4 4 4 5 5 3 4 5 1 3 1 1 4 4 4 3 3 4 3 2 1 3 2 4 4 3 3 1 1 2 2 1 3 4 4 4 4
5 4 7 5 3 4 5 5 3 3 3 3 5 5 8 3 3 3 2 3 3 3 3 2 1 2 3 3 3 3 4 3 3 1 2 2 3 3 4 4 4 5 5
3 3 3 4 4 4 5 2 3 3 3 4 1 1 3 2 2 3 3 3 3 3 3 3 3 4 5 5 5 5 5 5 4 3 2 3 4 4 4 4 4 4 5
4 2 4 4 4 4 3 4 3 4 4 5 5 4 3 2 3 3 3 3 3 3 2 2 2 2 4 3 4 6 6 5 4 3 3 4 4 4 4 4 5 6 5
4 3 3 5 5 5 4 2 2 4 1 3 3 3 4 4 3 4 4 4 3 3 2 2 2 3 3 4 3 3 3 3 2 3 4 4 5 5 4 5 6 7 7
5 3 3 3 2 4 4 4 3 4 5 4 4 4 4 3 3 4 4 4 3 1 2 1 1 4 4 6 7 6 5 5 4 4 3 4 6 8 6 6 7 7 9
3 2 2 2 2 3 4 4 5 5 5 5 5 4 5 4 5 5 5 4 3 1 0 2 3 3 7 6 7 8 7 5 5 4 3 4 5 6 5 7 9 7 9
Wind_Direction
130 125 119 116 111 108 109 103 106 98 95 82 86 71 57 46 25 32 28 39 59 53 47 48 36 28 19 8 6 16 20 20 22 312 285 303 322 339 335 324 307 237 232
112 109 114 111 101 101 98 96 101 91 79 100 94 76 66 60 43 40 54 57 72 68 54 56 34 21 13 11 16 19 13 355 0 302 292 316 347 351 357 2 349 348 332
121 119 112 105 110 105 99 100 93 91 84 83 85 79 71 62 60 48 80 76 79 85 73 62 41 37 17 2 30 32 17 0 338 266 294 295 322 1 352 344 341 338 330
120 111 107 112 117 114 109 102 101 100 96 91 90 85 76 58 63 55 78 76 82 88 103 86 61 58 26 43 39 34 29 30 345 344 306 312 331 320 341 343 351 342 325
116 115 120 117 111 113 105 102 104 97 104 108 100 75 55 51 47 87 110 134 106 78 69 85 42 48 47 41 37 0 356 349 7 350 2 349 329 344 359 328 322 318 313
123 125 124 117 114 116 121 124 121 130 126 102 87 97 61 21 13 54 141 157 119 98 77 32 27 35 25 33 31 32 36 33 15 7 330 333 354 336 320 333 329 341 345
132 137 134 130 129 136 138 131 136 144 148 152 153 109 69 10 39 61 104 164 142 123 111 50 25 10 18 17 11 21 17 22 46 211 326 314 338 15 352 7 336 311 291
137 137 133 132 139 142 140 152 159 152 156 165 176 185 121 357 42 57 72 77 137 159 171 124 20 347 337 26 8 3 350 333 344 360 269 293 275 40 67 273 278 284 291
143 142 142 142 146 155 153 178 198 170 186 198 184 179 187 270 23 50 67 67 85 162 226 263 270 311 306 12 15 356 342 336 347 357 7 8 356 358 42 42 353 12 336
153 153 148 146 155 168 172 184 206 193 210 201 223 206 210 220 258 5 74 93 83 43 244 296 295 288 287 305 319 352 341 314 344 348 350 356 6 352 4 43 224 47 315
151 147 145 153 166 174 175 189 221 205 193 197 209 237 224 212 244 240 215 269 168 148 200 292 300 309 326 321 276 204 229 287 330 356 356 350 346 351 342 333 312 149 300
146 144 157 158 173 175 176 206 228 207 183 221 255 279 248 208 230 240 219 208 218 302 283 277 289 306 318 305 310 299 158 148 168 20 3 342 328 321 312 317 295 323 240
136 145 157 164 171 175 171 214 221 248 250 280 287 282 265 210 214 229 219 232 233 230 261 272 298 314 326 354 160 45 92 100 80 5 338 292 268 269 295 330 323 343 336
144 148 153 165 178 192 165 204 212 237 252 254 230 254 260 206 214 228 230 252 274 261 268 287 285 292 293 294 333 310 251 166 174 227 262 277 298 327 343 5 335 343 356
152 154 159 182 189 193 198 211 221 233 203 207 211 194 186 208 228 205 201 217 227 226 233 295 322 319 314 301 286 263 265 322 115 282 269 303 323 327 343 8 12 350 354
165 169 171 177 188 181 195 259 243 238 253 231 206 191 216 222 241 212 211 194 184 165 123 279 291 282 279 284 287 284 252 216 234 284 294 6 328 14 16 349 345 339 304
172 177 177 178 193 185 214 221 251 297 246 254 245 234 225 237 203 205 194 160 177 140 204 256 258 266 270 272 263 234 228 215 334 15 359 37 46 23 14 330 318 312 303
174 169 167 194 197 202 213 224 214 231 244 268 259 233 238 244 220 228 200 143 182 233 224 246 258 252 246 247 268 281 233 71 64 96 90 44 18 328 311 328 324 292 294
150 178 201 221 209 212 221 227 227 228 222 244 288 263 234 236 226 195 169 201 214 247 238 250 251 250 261 236 136 83 87 108 127 126 83 29 322 314 309 307 299 308 314
177 188 192 189 197 177 188 218 240 235 226 242 282 260 82 66 50 194 209 200 209 233 231 242 234 225 230 124 129 114 131 133 153 156 46 297 281 280 308 305 303 303 294
182 204 192 198 181 207 200 228 269 292 260 203 227 196 179 156 184 214 191 180 190 180 169 172 154 149 152 148 136 131 156 166 180 201 252 291 318 316 298 284 284 284 279
163 203 242 224 218 235 239 206 222 205 224 195 186 83 126 102 148 162 169 174 173 164 169 165 174 184 190 182 174 168 175 188 204 223 267 287 297 295 290 280 286 282 281
144 241 266 243 225 227 246 233 215 193 178 188 171 183 136 155 165 166 165 164 156 156 177 178 193 227 228 209 200 180 179 190 201 202 258 283 288 282 279 280 283 288 280
155 215 275 258 219 213 240 255 168 188 171 126 122 126 143 165 176 174 164 157 154 171 197 223 253 253 230 214 201 154 139 155 182 252 270 276 278 283 276 272 272 273 274
182 193 276 309 160 181 167 189 148 131 135 138 145 152 170 169 163 157 159 162 172 177 326 310 314 307 292 205 161 164 173 190 229 256 269 279 276 283 275 271 270 271 272
187 213 279 207 190 161 149 164 150 151 164 174 174 181 181 179 168 160 164 171 164 172 281 338 336 46 102 123 153 175 199 250 295 306 299 279 278 277 266 265 269 270 273